Location: Antioch Church
(34.9543°N, 88.5145°W)
Time: 03:00:16
(UTC+00:00)

GEOS 3 Rocket - Pass Details

Date: 11 December 2019
Orbit: 783 x 836 km, 115.0° (Epoch: 19 January)

Event Time Altitude Azimuth Distance (km) Brightness Sun altitude
Rises 11:37:52 0° 152° (SSE) 3,253 7.5 -14.7°
Reaches altitude 10° 11:40:08 10° 155° (SSE) 2,330 6.6 -14.3°
Maximum altitude 11:45:09 69° 238° (WSW) 840 3.5 -13.3°
Enters shadow 11:49:54 12° 321° (NW) 2,220 5.4 -12.4°
